H1 CPF 2 NER 2024 4 7 9 098 01 glonass146 H2 2216101 9146 54377 2024 4 7 0 0 0 2024 4 10 23 45 0 900 1 1 0 0 0 1 H9 10 0 60407 0.00000 0 -21403284.992 -12451862.166 -6044047.618 10 0 60407 900.00000 0 -20587547.693 -11972109.770 -9083195.284 10 0 60407 1800.00000 0 -19392690.821 -11442602.817 -11945492.543 10 0 60407 2700.00000 0 -17834102.184 -10920230.614 -14575232.782 10 0 60407 3600.00000 0 -15939990.088 -10458917.430 -16921261.034 10 0 60407 4500.00000 0 -13750395.528 -10107180.814 -18937973.277 10 0 60407 5400.00000 0 -11315719.026 -9905934.726 -20586204.200 10 0 60407 6300.00000 0 -8694823.963 -9886630.876 -21833986.209 10 0 60407 7200.00000 0 -5952795.939 -10069816.900 -22657165.323 10 0 60407 8100.00000 0 -3158451.817 -10464172.068 -23039862.637 10 0 60407 9000.00000 0 -381702.251 -11066060.787 -22974773.273 10 0 60407 9900.00000 0 2309122.774 -11859622.201 -22463297.867 10 0 60407 10800.00000 0 4849874.753 -12817391.552 -21515504.979 10 0 60407 11700.00000 0 7183006.634 -13901426.669 -20149925.882 10 0 60407 12600.00000 0 9259712.556 -15064891.832 -18393186.347 10 0 60407 13500.00000 0 11041699.906 -16254032.191 -16279483.003 10 0 60407 14400.00000 0 12502521.686 -17410455.689 -13849914.651 10 0 60407 15300.00000 0 13628415.507 -18473626.660 -11151681.663 10 0 60407 16200.00000 0 14418616.146 -19383466.469 -8237168.930 10 0 60407 17100.00000 0 14885130.472 -20082952.178 -5162930.099 10 0 60407 18000.00000 0 15051985.860 -20520604.253 -1988592.656 10 0 60407 18900.00000 0 14953985.137 -20652759.032 1224295.045 10 0 60407 19800.00000 0 14635021.527 -20445530.640 4413452.674 10 0 60407 20700.00000 0 14146025.328 -19876379.989 7517069.862 10 0 60407 21600.00000 0 13542629.266 -18935224.905 10474998.183 10 0 60407 22500.00000 0 12882651.021 -17625044.505 13229910.460 10 0 60407 23400.00000 0 12223498.915 -15961951.946 15728405.354 10 0 60407 24300.00000 0 11619609.758 -13974731.727 17922036.384 10 0 60407 25200.00000 0 11120026.364 -11703859.798 19768246.061 10 0 60407 26100.00000 0 10766216.353 -9200046.102 21231187.615 10 0 60407 27000.00000 0 10590223.768 -6522358.816 22282418.952 10 0 60407 27900.00000 0 10613231.177 -3736006.707 22901455.785 10 0 60407 28800.00000 0 10844592.983 -909870.244 23076173.413 10 0 60407 29700.00000 0 11281381.140 1886117.617 22803049.244 10 0 60407 30600.00000 0 11908463.242 4583633.599 22087240.968 10 0 60407 31500.00000 0 12699110.882 7118559.848 20942498.141 10 0 60407 32400.00000 0 13616113.995 9433406.341 19390907.925 10 0 60407 33300.00000 0 14613355.693 11479459.799 17462478.759 10 0 60407 34200.00000 0 15637782.493 13218569.954 15194568.832 10 0 60407 35100.00000 0 16631687.920 14624498.737 12631169.331 10 0 60407 36000.00000 0 17535213.775 15683776.004 9822055.412 10 0 60407 36900.00000 0 18288963.610 16396025.862 6821820.816 10 0 60407 37800.00000 0 18836617.660 16773749.977 3688814.669 10 0 60407 38700.00000 0 19127437.936 16841577.165 484001.321 10 0 60407 39600.00000 0 19118556.362 16635011.386 -2730233.910 10 0 60407 40500.00000 0 18776947.855 16198731.728 -5891308.934 10 0 60407 41400.00000 0 18081003.451 15584517.224 -8937673.996 10 0 60407 42300.00000 0 17021635.627 14848885.465 -11810020.484 10 0 60407 43200.00000 0 15602867.960 14050546.217 -14452444.711 10 0 60407 44100.00000 0 13841883.296 13247779.031 -16813542.999 10 0 60407 45000.00000 0 11768527.773 12495846.892 -18847416.023 10 0 60407 45900.00000 0 9424291.151 11844556.061 -20514562.538 10 0 60407 46800.00000 0 6860806.044 11336065.723 -21782645.138 10 0 60407 47700.00000 0 4137928.843 11003039.981 -22627113.512 10 0 60407 48600.00000 0 1321482.527 10867219.918 -23031673.757 10 0 60407 49500.00000 0 -1519244.646 10938475.319 -22988595.454 10 0 60407 50400.00000 0 -4314140.565 11214375.228 -22498851.467 10 0 60407 51300.00000 0 -6994941.444 11680294.506 -21572088.627 10 0 60407 52200.00000 0 -9497824.397 12310051.031 -20226430.655 10 0 60407 53100.00000 0 -11765813.643 13067045.898 -18488117.791 10 0 60407 54000.00000 0 -13750901.612 13905858.004 -16390990.534 10 0 60407 54900.00000 0 -15415798.198 14774225.483 -13975827.782 10 0 60407 55800.00000 0 -16735236.969 15615330.321 -11289552.309 10 0 60407 56700.00000 0 -17696785.611 16370289.931 -8384319.007 10 0 60407 57600.00000 0 -18301128.510 16980750.842 -5316503.436 10 0 60407 58500.00000 0 -18561811.288 17391475.443 -2145610.244 10 0 60407 59400.00000 0 -18504459.519 17552813.045 1066877.562 10 0 60407 60300.00000 0 -18165505.624 17422951.372 4258686.367 10 0 60407 61200.00000 0 -17590478.392 16969853.800 7367953.849 10 0 60407 62100.00000 0 -16831927.668 16172800.784 10334422.045 10 0 60407 63000.00000 0 -15947071.767 15023470.403 13100598.801 10 0 60407 63900.00000 0 -14995266.633 13526512.154 15612865.526 10 0 60407 64800.00000 0 -14035402.914 11699589.146 17822510.344 10 0 60407 65700.00000 0 -13123339.997 9572885.796 19686667.234 10 0 60407 66600.00000 0 -12309484.362 7188100.294 21169143.562 10 0 60407 67500.00000 0 -11636613.501 4596962.223 22241120.531 10 0 60407 68400.00000 0 -11138036.427 1859335.336 22881713.417 10 0 60407 69300.00000 0 -10836167.828 -959017.388 23078380.898 10 0 60407 70200.00000 0 -10741575.838 -3788915.328 22827175.497 10 0 60407 71100.00000 0 -10852543.785 -6560387.031 22132829.866 10 0 60407 72000.00000 0 -11155165.000 -9205334.513 21008676.559 10 0 60407 72900.00000 0 -11623967.590 -11660125.505 19476401.863 10 0 60407 73800.00000 0 -12223043.875 -13868006.588 17565637.337 10 0 60407 74700.00000 0 -12907637.965 -15781237.166 15313395.745 10 0 60407 75600.00000 0 -13626125.373 -17362855.421 12763361.211 10 0 60407 76500.00000 0 -14322301.727 -18588002.364 9965046.399 10 0 60407 77400.00000 0 -14937884.079 -19444748.362 6972832.466 10 0 60407 78300.00000 0 -15415118.812 -19934387.281 3844910.230 10 0 60407 79200.00000 0 -15699385.142 -20071185.835 642143.285 10 0 60407 80100.00000 0 -15741682.912 -19881598.857 -2573124.174 10 0 60407 81000.00000 0 -15500898.044 -19402984.080 -5738290.662 10 0 60407 81900.00000 0 -14945748.222 -18681871.380 -8791726.900 10 0 60407 82800.00000 0 -14056325.014 -17771860.655 -11673986.226 10 0 60407 83700.00000 0 -12825165.838 -16731238.324 -14328971.162 10 0 60407 84600.00000 0 -11257809.342 -15620414.376 -16705032.410 10 0 60407 85500.00000 0 -9372809.865 -14499289.380 -18755978.126 10 0 60408 0.00000 0 -7201209.918 -13424663.605 -20441973.361 10 0 60408 900.00000 0 -4785491.206 -12447797.558 -21730313.023 10 0 60408 1800.00000 0 -2178050.855 -11612228.366 -22596051.520 10 0 60408 2700.00000 0 560737.441 -10951931.828 -23022480.492 10 0 60408 3600.00000 0 3364793.776 -10489908.296 -23001443.880 10 0 60408 4500.00000 0 6164840.584 -10237250.354 -22533486.038 10 0 60408 5400.00000 0 8891045.210 -10192730.439 -21627830.771 10 0 60408 6300.00000 0 11475687.164 -10342924.496 -20302192.463 10 0 60408 7200.00000 0 13855739.976 -10662865.225 -18582423.594 10 0 60408 8100.00000 0 15975261.322 -11117196.359 -16502005.923 10 0 60408 9000.00000 0 17787493.241 -11661778.465 -14101395.476 10 0 60408 9900.00000 0 19256586.371 -12245677.983 -11427234.157 10 0 60408 10800.00000 0 20358877.843 -12813455.291 -8531443.309 10 0 60408 11700.00000 0 21083671.063 -13307655.129 -5470216.665 10 0 60408 12600.00000 0 21433486.257 -13671394.338 -2302932.181 10 0 60408 13500.00000 0 21423772.735 -13850937.886 908996.321 10 0 60408 14400.00000 0 21082096.136 -13798154.631 4103305.634 10 0 60408 15300.00000 0 20446835.723 -13472749.413 7218084.919 10 0 60408 16200.00000 0 19565447.127 -12844177.389 10192969.723 10 0 60408 17100.00000 0 18492363.850 -11893159.831 12970305.501 10 0 60408 18000.00000 0 17286625.783 -10612737.216 15496258.479 10 0 60408 18900.00000 0 16009334.097 -9008814.669 17721852.923 10 0 60408 19800.00000 0 14721038.941 -7100175.823 19603915.291 10 0 60408 20700.00000 0 13479168.998 -4917963.216 21105907.595 10 0 60408 21600.00000 0 12335610.055 -2504645.265 22198634.393 10 0 60408 22500.00000 0 11334533.490 87488.921 22860810.150 10 0 60408 23400.00000 0 10510565.222 2798246.150 23079476.162 10 0 60408 24300.00000 0 9887371.567 5561779.407 22850258.945 10 0 60408 25200.00000 0 9476721.225 8309080.109 22177464.664 10 0 60408 26100.00000 0 9278062.954 10970610.364 21074007.123 10 0 60408 27000.00000 0 9278637.123 13478967.156 19561169.736 10 0 60408 27900.00000 0 9454117.018 15771468.590 17668204.946 10 0 60408 28800.00000 0 9769753.632 17792555.031 15431777.661 10 0 60408 29700.00000 0 10181976.327 19495905.159 12895262.343 10 0 60408 30600.00000 0 10640382.253 20846178.459 10107906.402 10 0 60408 31500.00000 0 11090030.697 21820310.827 7123875.538 10 0 60408 32400.00000 0 11473945.070 22408308.619 4001199.298 10 0 60408 33300.00000 0 11735716.077 22613507.428 800637.515 10 0 60408 34200.00000 0 11822094.773 22452284.555 -2415509.697 10 0 60408 35100.00000 0 11685464.400 21953237.430 -5584624.306 10 0 60408 36000.00000 0 11286084.786 21155863.055 -8645000.155 10 0 60408 36900.00000 0 10594012.680 20108794.938 -11537054.890 10 0 60408 37800.00000 0 9590615.310 18867672.915 -14204499.271 10 0 60408 38700.00000 0 8269611.800 17492736.841 -16595440.050 10 0 60408 39600.00000 0 6637597.395 16046246.774 -18663394.173 10 0 60408 40500.00000 0 4714027.537 14589839.338 -20368194.216 10 0 60408 41400.00000 0 2530661.825 13181932.275 -21676767.442 10 0 60408 42300.00000 0 130490.773 11875286.701 -22563773.642 10 0 60408 43200.00000 0 -2433809.991 10714829.426 -23012090.039 10 0 60408 44100.00000 0 -5101833.713 9735826.227 -23013134.630 10 0 60408 45000.00000 0 -7807723.403 8962481.815 -22567022.605 10 0 60408 45900.00000 0 -10482684.907 8407023.981 -21682553.691 10 0 60408 46800.00000 0 -13057628.037 8069308.850 -20377031.468 10 0 60408 47700.00000 0 -15465826.483 7936962.284 -18675918.800 10 0 60408 48600.00000 0 -17645486.647 7986049.947 -16612336.508 10 0 60408 49500.00000 0 -19542119.518 8182246.512 -14226415.287 10 0 60408 50400.00000 0 -21110617.897 8482453.643 -11564513.557 10 0 60408 51300.00000 0 -22316953.636 8836797.773 -8678316.424 10 0 60408 52200.00000 0 -23139425.368 9190922.844 -5623833.136 10 0 60408 53100.00000 0 -23569405.857 9488480.982 -2460312.383 10 0 60408 54000.00000 0 -23611558.958 9673715.859 750903.675 10 0 60408 54900.00000 0 -23283518.179 9694029.699 3947564.595 10 0 60408 55800.00000 0 -22615041.230 9502425.632 7067713.261 10 0 60408 56700.00000 0 -21646676.689 9059722.387 10050880.870 10 0 60408 57600.00000 0 -20427999.089 8336447.868 12839252.519 10 0 60408 58500.00000 0 -19015486.577 7314331.549 15378781.166 10 0 60408 59400.00000 0 -17470129.971 5987332.386 17620228.974 10 0 60408 60300.00000 0 -15854872.974 4362158.174 19520116.456 10 0 60408 61200.00000 0 -14231990.209 2458253.386 21041561.614 10 0 60408 62100.00000 0 -12660512.060 307254.433 22154993.441 10 0 60408 63000.00000 0 -11193803.316 -2048066.695 22838726.378 10 0 60408 63900.00000 0 -9877396.196 -4555328.351 23079384.835 10 0 60408 64800.00000 0 -8747167.787 -7154473.207 22872169.502 10 0 60408 65700.00000 0 -7827937.751 -9780031.825 22220959.929 10 0 60408 66600.00000 0 -7132544.835 -12363623.454 21138250.731 10 0 60408 67500.00000 0 -6661440.920 -14836591.534 19644921.679 10 0 60408 68400.00000 0 -6402819.895 -17132665.352 17769845.017 10 0 60408 69300.00000 0 -6333276.247 -19190537.623 15549336.381 10 0 60408 70200.00000 0 -6418966.077 -20956250.757 13026458.843 10 0 60408 71100.00000 0 -6617221.834 -22385291.977 10250192.555 10 0 60408 72000.00000 0 -6878552.674 -23444309.130 7274485.498 10 0 60408 72900.00000 0 -7148945.656 -24112374.724 4157203.472 10 0 60408 73800.00000 0 -7372369.824 -24381744.524 958999.904 10 0 60408 74700.00000 0 -7493376.184 -24258078.294 -2257871.970 10 0 60408 75600.00000 0 -7459682.129 -23760113.106 -5430780.490 10 0 60408 76500.00000 0 -7224629.334 -22918803.084 -8497945.620 10 0 60408 77400.00000 0 -6749409.389 -21775962.243 -11399652.383 10 0 60408 78300.00000 0 -6004961.377 -20382468.341 -14079422.839 10 0 60408 79200.00000 0 -4973459.668 -18796104.368 -16485122.768 10 0 60408 80100.00000 0 -3649327.845 -17079129.600 -18569980.698 10 0 60408 81000.00000 0 -2039734.986 -15295683.405 -20293499.098 10 0 60408 81900.00000 0 -164552.635 -13509131.693 -21622239.987 10 0 60408 82800.00000 0 1944226.237 -11779467.905 -22530470.002 10 0 60408 83700.00000 0 4243582.337 -10160877.605 -23000653.039 10 0 60408 84600.00000 0 6681033.640 -8699568.327 -23023781.703 10 0 60408 85500.00000 0 9196602.381 -7431954.736 -22599542.021 10 0 60409 0.00000 0 11725103.435 -6383273.906 -21736309.243 10 0 60409 900.00000 0 14198660.408 -5566686.638 -20450975.018 10 0 60409 1800.00000 0 16549341.732 -4982902.046 -18768611.226 10 0 60409 2700.00000 0 18711812.067 -4620337.496 -16721975.887 10 0 60409 3600.00000 0 20625885.995 -4455806.871 -14350872.059 10 0 60409 4500.00000 0 22238879.741 -4455706.083 -11701371.942 10 0 60409 5400.00000 0 23507663.636 -4577644.735 -8824921.276 10 0 60409 6300.00000 0 24400330.674 -4772454.207 -5777341.337 10 0 60409 7200.00000 0 24897412.480 -4986486.771 -2617747.802 10 0 60409 8100.00000 0 24992592.850 -5164108.306 592592.698 10 0 60409 9000.00000 0 24692889.934 -5250279.171 3791446.352 10 0 60409 9900.00000 0 24018300.168 -5193114.208 6916813.485 10 0 60409 10800.00000 0 23000919.476 -4946313.809 9908124.380 10 0 60409 11700.00000 0 21683578.874 -4471363.452 12707406.828 10 0 60409 12600.00000 0 20118051.727 -3739408.809 15260403.126 10 0 60409 13500.00000 0 18362907.527 -2732727.123 17517615.466 10 0 60409 14400.00000 0 16481101.572 -1445732.279 19435260.057 10 0 60409 15300.00000 0 14537400.687 114529.574 20976112.075 10 0 60409 16200.00000 0 12595751.784 1928415.995 22110225.687 10 0 60409 17100.00000 0 10716702.243 3964255.983 22815515.632 10 0 60409 18000.00000 0 8954978.952 6179427.628 23078189.331 10 0 60409 18900.00000 0 7357326.258 8521902.789 22893021.140 10 0 60409 19800.00000 0 5960692.387 10932196.518 22263463.084 10 0 60409 20700.00000 0 4790839.693 13345641.907 21201589.274 10 0 60409 21600.00000 0 3861436.523 15694897.331 19727874.143 10 0 60409 22500.00000 0 3173668.677 17912582.933 17870807.683 10 0 60409 23400.00000 0 2716386.816 19933937.242 15666353.892 10 0 60409 24300.00000 0 2466783.749 21699383.444 13157261.804 10 0 60409 25200.00000 0 2391573.192 23156897.927 10392241.428 10 0 60409 26100.00000 0 2448620.251 24264081.506 7425019.944 10 0 60409 27000.00000 0 2588954.501 24989845.732 4313296.204 10 0 60409 27900.00000 0 2759079.941 25315642.662 1117613.943 10 0 60409 28800.00000 0 2903483.149 25236185.571 -2099823.750 10 0 60409 29700.00000 0 2967232.169 24759629.651 -5276374.758 10 0 60409 30600.00000 0 2898554.564 23907204.744 -8350188.153 10 0 60409 31500.00000 0 2651283.806 22712315.611 -11261419.035 10 0 60409 32400.00000 0 2187068.799 21219147.958 -13953403.132 10 0 60409 33300.00000 0 1477251.514 19480839.548 -16373767.239 10 0 60409 34200.00000 0 504332.035 17557294.182 -18475453.083 10 0 60409 35100.00000 0 -737041.912 15512731.259 -20217634.267 10 0 60409 36000.00000 0 -2239603.490 13413074.572 -21566508.470 10 0 60409 36900.00000 0 -3983533.767 11323290.357 -22495949.745 10 0 60409 37800.00000 0 -5937064.783 9304786.261 -22988008.893 10 0 60409 38700.00000 0 -8057593.706 7412979.775 -23033253.002 10 0 60409 39600.00000 0 -10293261.568 5695137.153 -22630938.441 10 0 60409 40500.00000 0 -12584930.865 4188571.920 -21789014.863 10 0 60409 41400.00000 0 -14868479.655 2919276.782 -20523960.942 10 0 60409 42300.00000 0 -17077316.793 1901044.323 -18860455.681 10 0 60409 43200.00000 0 -19145013.822 1135111.332 -16830892.134 10 0 60409 44100.00000 0 -21007944.323 610339.655 -14474743.265 10 0 60409 45000.00000 0 -22607821.241 303924.114 -11837792.376 10 0 60409 45900.00000 0 -23894027.008 182596.068 -8971243.040 10 0 60409 46800.00000 0 -24825639.924 204270.576 -5930725.731 10 0 60409 47700.00000 0 -25373072.878 320066.704 -2775220.302 10 0 60409 48600.00000 0 -25519256.624 476615.019 434084.896 10 0 60409 49500.00000 0 -25260318.803 618554.433 3634975.359 10 0 60409 50400.00000 0 -24605730.850 691112.756 6765411.426 10 0 60409 51300.00000 0 -23577917.049 642661.927 9764724.948 10 0 60409 52200.00000 0 -22211342.339 427140.076 12574788.750 10 0 60409 53100.00000 0 -20551117.034 6238.195 15141136.646 10 0 60409 54000.00000 0 -18651176.562 -648740.890 17414012.817 10 0 60409 54900.00000 0 -16572111.812 -1555429.917 19349330.857 10 0 60409 55800.00000 0 -14378739.984 -2719412.697 20909524.491 10 0 60409 56700.00000 0 -12137516.428 -4133750.101 22064274.078 10 0 60409 57600.00000 0 -9913894.362 -5779037.798 22791095.302 10 0 60409 58500.00000 0 -7769741.528 -7623994.990 23075778.881 10 0 60409 59400.00000 0 -5760920.395 -9626561.478 22912672.776 10 0 60409 60300.00000 0 -3935131.884 -11735459.284 22304801.102 10 0 60409 61200.00000 0 -2330111.825 -13892155.631 21263816.786 10 0 60409 62100.00000 0 -972254.911 -16033147.173 19809787.972 10 0 60409 63000.00000 0 124276.678 -18092471.667 17970821.175 10 0 60409 63900.00000 0 957922.799 -20004343.218 15782527.272 10 0 60409 64800.00000 0 1539557.568 -21705801.524 13287339.520 10 0 60409 65700.00000 0 1891791.397 -23139264.327 10533695.801 10 0 60409 66600.00000 0 2047772.316 -24254875.691 7575100.311 10 0 60409 67500.00000 0 2049537.473 -25012550.837 4469082.578 10 0 60409 68400.00000 0 1945984.996 -25383630.633 1276074.147 10 0 60409 69300.00000 0 1790552.866 -25352075.085 -1941774.637 10 0 60409 70200.00000 0 1638704.225 -24915144.656 -5121813.869 10 0 60409 71100.00000 0 1545327.023 -24083539.957 -8202124.434 10 0 60409 72000.00000 0 1562159.749 -22880993.510 -11122734.238 10 0 60409 72900.00000 0 1735353.849 -21343330.719 -13826795.386 10 0 60409 73800.00000 0 2103277.587 -19517039.822 -16261698.336 10 0 60409 74700.00000 0 2694655.543 -17457411.486 -18380100.512 10 0 60409 75600.00000 0 3527123.491 -15226326.847 -20140848.946 10 0 60409 76500.00000 0 4606260.455 -12889787.427 -21509778.970 10 0 60409 77400.00000 0 5925139.281 -10515290.934 -22460373.680 10 0 60409 78300.00000 0 7464414.984 -8169162.964 -22974272.018 10 0 60409 79200.00000 0 9192947.370 -5913955.975 -23041616.361 10 0 60409 80100.00000 0 11068931.890 -3806023.592 -22661233.799 10 0 60409 81000.00000 0 13041491.465 -1893370.478 -21840648.462 10 0 60409 81900.00000 0 15052662.808 -213866.085 -20595925.476 10 0 60409 82800.00000 0 17039694.337 1206104.888 -18951350.210 10 0 60409 83700.00000 0 18937559.966 2352500.905 -16938949.544 10 0 60409 84600.00000 0 20681584.098 3223957.082 -14597864.715 10 0 60409 85500.00000 0 22210068.559 3831581.839 -11973588.059 10 0 60410 0.00000 0 23466812.138 4198227.157 -9117078.754 10 0 60410 900.00000 0 24403418.506 4357264.981 -6083773.047 10 0 60410 1800.00000 0 24981294.979 4350922.204 -2932511.981 10 0 60410 2700.00000 0 25173261.212 4228246.095 275597.851 10 0 60410 3600.00000 0 24964699.229 4042786.168 3478364.842 10 0 60410 4500.00000 0 24354197.742 3850090.980 6613712.936 10 0 60410 5400.00000 0 23353663.901 3705125.667 9620878.998 10 0 60410 6300.00000 0 21987897.857 3659719.237 12441584.121 10 0 60410 7200.00000 0 20293647.774 3760149.282 15021156.562 10 0 60410 8100.00000 0 18318184.447 4044965.959 17309585.083 10 0 60410 9000.00000 0 16117454.401 4543147.000 19262482.900 10 0 60410 9900.00000 0 13753887.755 5272661.773 20841944.138 10 0 60410 10800.00000 0 11293951.228 6239505.407 22017276.834 10 0 60410 11700.00000 0 8805547.030 7437244.508 22765598.706 10 0 60410 12600.00000 0 6355364.790 8847094.883 23072284.450 10 0 60410 13500.00000 0 4006295.512 10438529.632 22931255.869 10 0 60410 14400.00000 0 1815014.117 12170394.035 22345108.931 10 0 60410 15300.00000 0 -170169.699 13992482.482 21325074.655 10 0 60410 16200.00000 0 -1911103.438 15847513.376 19890813.674 10 0 60410 17100.00000 0 -3381152.344 17673421.008 18070047.333 10 0 60410 18000.00000 0 -4566071.982 19405869.753 15898031.260 10 0 60410 18900.00000 0 -5464356.466 20980886.084 13416880.439 10 0 60410 19800.00000 0 -6087047.852 22337498.345 10674757.837 10 0 60410 20700.00000 0 -6457014.866 23420273.248 7724941.637 10 0 60410 21600.00000 0 -6607731.600 24181641.817 4624788.858 10 0 60410 22500.00000 0 -6581608.247 24583915.976 1434615.579 10 0 60410 23400.00000 0 -6427945.158 24600909.639 -1783483.909 10 0 60410 24300.00000 0 -6200597.843 24219094.818 -4966855.154 10 0 60410 25200.00000 0 -5955453.092 23438242.976 -8053513.970 10 0 60410 26100.00000 0 -5747824.576 22271523.738 -10983363.972 10 0 60410 27000.00000 0 -5629879.802 20745056.366 -13699376.263 10 0 60410 27900.00000 0 -5648208.851 18896932.678 -16148707.265 10 0 60410 28800.00000 0 -5841639.098 16775752.699 -18283732.058 10 0 60410 29700.00000 0 -6239389.405 14438734.873 -20062972.725 10 0 60410 30600.00000 0 -6859642.504 11949480.544 -21451903.538 10 0 60410 31500.00000 0 -7708596.290 9375486.736 -22423617.612 10 0 60410 32400.00000 0 -8780034.225 6785511.467 -22959342.672 10 0 60410 33300.00000 0 -10055432.959 4246901.548 -23048796.702 10 0 60410 34200.00000 0 -11504602.580 1822993.954 -22690377.453 10 0 60410 35100.00000 0 -13086832.480 -429301.738 -21891183.075 10 0 60410 36000.00000 0 -14752494.729 -2461640.309 -20666864.250 10 0 60410 36900.00000 0 -16445037.731 -4236009.757 -19041311.390 10 0 60410 37800.00000 0 -18103286.748 -5726060.126 -17046183.463 10 0 60410 38700.00000 0 -19663955.178 -6917938.905 -14720287.874 10 0 60410 39600.00000 0 -21064261.689 -7810600.148 -12108823.595 10 0 60410 40500.00000 0 -22244543.967 -8415576.441 -9262502.253 10 0 60410 41400.00000 0 -23150760.063 -8756225.206 -6236564.137 10 0 60410 42300.00000 0 -23736772.877 -8866482.612 -3089708.120 10 0 60410 43200.00000 0 -23966322.428 -8789178.875 117043.878 10 0 60410 44100.00000 0 -23814603.629 -8573986.906 3321526.080 10 0 60410 45000.00000 0 -23269383.576 -8275091.432 6461628.960 10 0 60410 45900.00000 0 -22331611.699 -7948677.274 9476497.283 10 0 60410 46800.00000 0 -21015497.114 -7650342.842 12307703.208 10 0 60410 47700.00000 0 -19348049.629 -7432547.876 14900372.079 10 0 60410 48600.00000 0 -17368103.103 -7342202.934 17204239.654 10 0 60410 49500.00000 0 -15124861.156 -7418502.053 19174620.879 10 0 60410 50400.00000 0 -12676024.971 -7691089.904 20773272.037 10 0 60410 51300.00000 0 -10085580.023 -8178640.745 21969130.171 10 0 60410 52200.00000 0 -7421332.560 -8887909.475 22738915.938 10 0 60410 53100.00000 0 -4752296.981 -9813295.523 23067588.472 10 0 60410 54000.00000 0 -2146041.351 -10936939.071 22948643.471 10 0 60410 54900.00000 0 333899.847 -12229347.117 22384248.442 10 0 60410 55800.00000 0 2630439.215 -13650524.793 21385211.834 10 0 60410 56700.00000 0 4695076.642 -15151566.271 19970785.813 10 0 60410 57600.00000 0 6489677.704 -16676640.200 18168305.310 10 0 60410 58500.00000 0 7987816.408 -18165287.747 16012669.189 10 0 60410 59400.00000 0 9175626.439 -19554937.788 13545672.370 10 0 60410 60300.00000 0 10052125.339 -20783534.082 10815200.837 10 0 60410 61200.00000 0 10628998.144 -21792163.928 7874304.446 10 0 60410 62100.00000 0 10929849.778 -22527577.146 4780165.185 10 0 60410 63000.00000 0 10988958.113 -22944488.346 1592980.974 10 0 60410 63900.00000 0 10849580.967 -23007564.196 -1625212.722 10 0 60410 64800.00000 0 10561889.506 -22693010.528 -4811759.714 10 0 60410 65700.00000 0 10180616.678 -21989691.008 -7904613.528 10 0 60410 66600.00000 0 9762521.573 -20899729.039 -10843556.198 10 0 60410 67500.00000 0 9363778.576 -19438566.642 -13571380.440 10 0 60410 68400.00000 0 9037403.249 -17634477.277 -16035011.113 10 0 60410 69300.00000 0 8830825.190 -15527552.877 -18186543.265 10 0 60410 70200.00000 0 8783711.565 -13168207.663 -19984176.109 10 0 60410 71100.00000 0 8926133.981 -10615261.693 -21393024.674 10 0 60410 72000.00000 0 9277156.506 -7933684.651 -22385793.597 10 0 60410 72900.00000 0 9843904.452 -5192094.347 -22943300.553 10 0 60410 73800.00000 0 10621152.982 -2460114.340 -23054839.928 10 0 60410 74700.00000 0 11591452.555 194299.461 -22718380.594 10 0 60410 75600.00000 0 12725785.516 2707452.478 -21940594.822 10 0 60410 76500.00000 0 13984725.889 5022318.478 -20736718.626 10 0 60410 77400.00000 0 15320053.369 7090661.021 -19130246.905 10 0 60410 78300.00000 0 16676753.573 8874782.640 -17152469.820 10 0 60410 79200.00000 0 17995320.596 10348830.733 -14841859.687 10 0 60410 80100.00000 0 19214265.318 11499607.641 -12243320.477 10 0 60410 81000.00000 0 20272724.343 12326853.095 -9407314.496 10 0 60410 81900.00000 0 21113060.429 12842989.203 -6388883.132 10 0 60410 82800.00000 0 21683345.494 13072340.432 -3246580.558 10 0 60410 83700.00000 0 21939622.275 13049862.867 -41340.970 10 0 60410 84600.00000 0 21847849.836 12819437.384 3164698.924 10 0 60410 85500.00000 0 21385451.435 12431799.498 6309399.455 99